This demonstration page uses our WeatherBlox Daily Observations layout. Learn more.

Left ArrowRight Arrow

39.92423, -83.80882

Hourly Observations for April 11, 2020

Temp ( °F °C ) Dew Point ( °F °C ) Humidity (%) Winds ( mph kmh ) Pressure ( in mb ) Visibility ( mi km ) Precip ( " mm )
12:56 am 00:56 Clear 34 1.1 29 -1.7 82 82 E 3 6 30.03 1017 10 16.0934 0 0
1:56 am 01:56 Clear 35 1.7 33 0.6 93 93 Calm 30.03 1017 10 16.0934 0 0
2:56 am 02:56 Clear 32 0 30 -1.1 92 92 E 5 7 30.03 1017 10 16.0934 0 0
3:56 am 03:56 Clear 32 0 30 -1.1 92 92 Calm 30.03 1017 10 16.0934 0 0
4:56 am 04:56 Clear 30 -1.1 29 -1.7 96 96 SE 3 6 30.03 1017 10 16.0934 0 0
5:56 am 05:56 Clear 33 0.6 31 -0.6 92 92 SSW 3 6 30.02 1017 10 16.0934 0 0
6:56 am 06:56 Mostly Cloudy 36 2.2 30 -1.1 79 79 SW 8 13 30.03 1017 10 16.0934 0 0
7:56 am 07:56 Cloudy 37 2.8 32 0 82 82 SW 6 9 30.05 1018 10 16.0934 0 0
8:56 am 08:56 Cloudy 39 3.9 32 0 76 76 SW 3 6 30.07 1018 10 16.0934 0 0
9:56 am 09:56 Cloudy 41 5 33 0.6 73 73 WSW 3 6 30.07 1018 10 16.0934 0 0
10:56 am 10:56 Cloudy 44 6.7 32 0 63 63 Calm 30.08 1019 10 16.0934 0 0
11:56 am 11:56 Cloudy 47 8.3 34 1.1 61 61 SSW 3 6 30.07 1018 10 16.0934 0 0
12:56 pm 12:56 Cloudy 50 10 30 -1.1 46 46 SSW 8 13 30.05 1018 10 16.0934 0 0
1:56 pm 13:56 Mostly Cloudy 52 11.1 29 -1.7 41 41 SW 14 22 30.03 1017 10 16.0934 0 0
2:56 pm 14:56 Mostly Cloudy 55 12.8 31 -0.6 40 40 SW 14 22 30.01 1016 10 16.0934 0 0
3:56 pm 15:56 Sunny 56 13.3 29 -1.7 36 36 SSW 14 22 29.98 1015 10 16.0934 0 0
4:56 pm 16:56 Sunny 56 13.3 31 -0.6 39 39 S 7 11 29.97 1015 10 16.0934 0 0
5:56 pm 17:56 Sunny 57 13.9 32 0 39 39 S 8 13 29.95 1014 10 16.0934 0 0
6:56 pm 18:56 Sunny 57 13.9 30 -1.1 36 36 S 6 9 29.94 1014 10 16.0934 0 0
7:56 pm 19:56 Sunny 54 12.2 35 1.7 49 49 SSE 7 11 29.93 1014 10 16.0934 0 0
8:56 pm 20:56 Clear 53 11.7 32 0 45 45 S 8 13 29.93 1014 10 16.0934 0 0
9:56 pm 21:56 Clear 50 10 34 1.1 54 54 S 9 15 29.93 1014 10 16.0934 0 0
10:56 pm 22:56 Clear 48 8.9 33 0.6 56 56 SSE 6 9 29.93 1013 10 16.0934 0 0
11:56 pm 23:56 Mostly Clear 44 6.7 34 1.1 68 68 ESE 6 9 29.9 1013 10 16.0934 0 0

Powered by AerisWeather